STARLINK-3960 (52659 NORAD) Tracking and Keplerian Element Data

This shows tracking and keplerian element data for the satellite.

Feedback or suggestion? Click here.




ElementValue
Catalog52659
NameSTARLINK-3960
Epoch Orbit2100
Epoch Day269.67721586
Epoch Year2022
RAAN50.527
Inclination53.2175
Eccentricity0.0001551
Argument of Perigee52.5194
Mean Anonmoly307.5939
Mean Motion15.08836583
Decay Rate2.621E-05
L11 52659U 22053D 22269.67721586 .00002621 00000+0 18273-3 0 9996
L22 52659 53.2175 50.5270 0001551 52.5194 307.5939 15.08836583 21005

Live tracking and technical data element details for STARLINK-3960 (NORAD 52659). STARLINK-3960 can be tracked NOW for your location showing map with azimuth and elevation plus other details from your city location.

Track the satellite on the map from your city or location and see movement details for azimuth, elevation, latitude, longitude, range, height, and movement on the map or in text.







IsCatalogInMostPopularTable: catalog: 52659, numindb: 9
Update: records affected: 1



GetName: 52659 STARLINK-3960

Hit Count: updated at: Thu, 06 Oct 2022 04:57:06 GMT